COSMOS 886 DEB, 9824

Orbit data source: Space-Track

COSMOS 886 DEB, 9824 is space debris in LEO originally from a launch on Mon, 27 Dec 1976 UTC launched from the Tyuratam Missile And Space Complex (TTMTR). Debris objects in space refer to the collection of defunct objects orbiting the Earth. Examples of debris include non-operational satellites, rocket bodies, and fragments generated from explosions, collisions, or faulty payload assembly.

Loading next visibility...
Identifier
9824, 1976-126AL
Orbit
LEO
Country
Flag of CISCIS
Related business
Manufacturer
Unknown
Mission
Spacecraft
Bus & Motor
Unknown
Mass
Unknown
Launch date (UTC)
1976-12-27 (49 years ago)
Launch vehicle
Unknown
Launch site
Tyuratam Missile And Space Complex (TTMTR)
Object type
Payload
Rocket body
Debris
Shape & HBR
Unknown shape, 0.1 m
Radar Cross Section
Small (<0.1 m²)

Expand to show TLE details & history
Last TLE update: 8 hours ago

TLE from 8 hours ago
0 COSMOS 886 DEB
1  9824U 76126AL  26130.20574010  .00000884  00000-0  23234-3 0  9993
2  9824  65.8080 161.1731 0854037  45.5035 321.2661 13.32511453349613
Epoch: 2026-05-10T04:56Z
TLE epoch observation values (Epoch: 2026-05-10T04:56:15.944Z)
Latitude
-0.00003°
Longitude
-140.90551°
Altitude
662.266 km
Speed
7.762 km/s
True Right ascension
10h 44m 41s
True Declination
0° 00' 00"
Sunlit
Object was in daylight at epoch
Visualization orbit readout
Latitude
Unknown
Longitude
Unknown
Altitude
Unknown
Speed
Unknown
Apparent Right ascension
Unknown
Apparent Declination
Unknown
Sunlit
N/A
Visualization observer readout
Local Sidereal Time
21:18:55
Azimuth
Unknown
Elevation
Unknown
Doppler factor
Unknown
Orbital elements
Apogee altitude
1,777.562 km
Perigee altitude
494.119 km
Semi-major axis
7,513.977 km
Eccentricity
0.0854
Inclination
65.808°
RAAN
161.1731°
Arg. of periapsis
45.5035°
True anomaly
314.6038°
Mean anomaly
321.2661°
Eccentric anomaly
317.99131°
Mean motion
3.33226 °/min
Orbital period
108.03 mins
BSTAR
0.00023234
Loading maneuver chart data...
Computing Atmospheric mass density...
Loading historical data...
Loading historical data...
Loading historical data...
Loading historical data...
Loading historical data...
Loading historical data...
Loading historical data...

Documentation

Showing up to 5 results
|